Location: Unspecified
(0.0000°N, 0.0000°E)
Time: 07:13:04
(UTC+00:00)

Courier 1B Rocket - Pass Details

Date: 22 December 2018
Orbit: 920 x 1202 km, 28.2° (Epoch: 16 June)

Event Time Altitude Azimuth Distance (km) Brightness Sun altitude
Rises 04:44:04 0° 274° (W) 3,616 - -17.0°
Reaches altitude 10° 04:47:38 10° 293° (WNW) 2,635 - -16.2°
Exits shadow 04:50:58 18° 324° (NW) 2,119 6.3 -15.4°
Maximum altitude 04:51:46 18° 334° (NNW) 2,093 6.3 -15.3°
Drops below altitude 10° 04:55:51 10° 16° (NNE) 2,597 7.1 -14.3°
Sets 04:59:21 0° 34° (NE) 3,543 8.1 -13.5°
